Location: El Hornillo
(40.2499°N, 5.1036°W)
Time: 08:29:37
(UTC+00:00)

MetOp-B - Pass Details

Date: 05 August 2024
Orbit: 819 x 821 km, 98.6° (Epoch: 14 September)

Event Time Altitude Azimuth Distance (km) Brightness Sun altitude
Exits shadow 20:58:17 19° 157° (SSE) 1,840 5.4 -15.4°
Maximum altitude 21:02:08 75° 74° (ENE) 853 4.1 -15.9°
Drops below altitude 10° 21:07:29 10° 350° (N) 2,427 7.3 -16.7°
Sets 21:09:51 0° 349° (N) 3,363 8.2 -17.1°
